STARLINK-34144, 63958

Orbit data source: Space-Track

STARLINK-34144, 63958 is a payload satellite owned by SpaceX/Seattle (US) in LEO that was launched on Tue, 13 May 2025 UTC via an FALCON 9 launch vehicle from the Air Force Eastern Test Range (AFETR). Payload-class satellites include a variety of spacecraft equipped with specific instruments for various scientific and technological missions. These include communications satellites like Starlink; space stations such as the ISS; scientific satellites like the Hubble; Earth observation satellites from companies like Planet Labs, Umbra, and HawkEye 360; GPS; miniature CubeSats for education and research; and military/defense satellites.

Loading next visibility...
Identifier
63958, 2025-099G
Orbit
LEO
Country
Flag of USUS
Related business
Manufacturer
SpaceX/Seattle
Mission
Operational Commercial Communications
Bus & Motor
STARLINK V2MO, Unknown motor
Mass
575 kg wet, ~530 kg dry
Launch date (UTC)
2025-05-13 (7 months ago)
Launch vehicle
FALCON 9
Launch site
Air Force Eastern Test Range (AFETR)
Object type
Payload
Rocket body
Debris
Shape & HBR
Box + 2 Pan, 17.7 m
Radar Cross Section
36.964 m², Large (>1 m²)

Expand to show TLE details & history
Last TLE update: 15 hours ago

TLE from 15 hours ago
0 STARLINK-34144
1 63958U 25099G   25346.91602669  .00051622  00000-0  18714-2 0  9994
2 63958  42.9999 306.4276 0001190 279.8366  80.2351 15.27595714 34063
Epoch: 2025-12-12T21:59Z
TLE epoch observation values (Epoch: 2025-12-12T21:59:04.706Z)
Latitude
-0.00001°
Longitude
-105.19281°
Altitude
482.639 km
Speed
7.626 km/s
True Right ascension
20h 25m 42s
True Declination
0° 00' 00"
Sunlit
Object was in daylight at epoch
Visualization orbit readout
Latitude
Unknown
Longitude
Unknown
Altitude
Unknown
Speed
Unknown
Apparent Right ascension
Unknown
Apparent Declination
Unknown
Sunlit
N/A
Visualization observer readout
Local Sidereal Time
11:35:32
Azimuth
Unknown
Elevation
Unknown
Doppler factor
Unknown
Orbital elements
Apogee altitude
485.764 km
Perigee altitude
484.131 km
Semi-major axis
6,863.084 km
Eccentricity
0.00012
Inclination
42.9999°
RAAN
306.4276°
Arg. of periapsis
279.8366°
True anomaly
80.24854°
Mean anomaly
80.2351°
Eccentric anomaly
80.24182°
Mean motion
3.81737 °/min
Orbital period
94.31 mins
BSTAR
0.0018714
Loading maneuver chart data...
Computing Atmospheric mass density...
Loading historical data...
Loading historical data...
Loading historical data...
Loading historical data...
Loading historical data...
Loading historical data...
Loading historical data...

Documentation

Showing up to 5 results
|